Location: Baller�as
(41.9020°N, 0.1554°W)
Time: 00:41:11
(UTC+00:00)

Meteor 2-20 - Pass Details

Date: 10 August 2020
Orbit: 938 x 959 km, 82.5° (Epoch: 22 September)

Event Time Altitude Azimuth Distance (km) Brightness Sun altitude
Rises 20:42:09 0° 352° (N) 3,648 8.3 -16.1°
Reaches altitude 10° 20:44:40 10° 353° (N) 2,696 7.5 -16.5°
Maximum altitude 20:50:51 85° 82° (E) 963 4.4 -17.3°
Enters shadow 20:55:17 20° 171° (S) 2,046 5.8 -18.0°
